Flag for Germany Weather past 2 weeks in Neuburg an der Donau, Bavaria, Germany

48 °F

Passing clouds.

Feels Like: 40 °F
Forecast: 46 / 51 °F
Wind: 24 mph from Southwest

Location: Neuburg / Donau

Current Time: Nov 30, 2015 at 4:24:43 AM

Latest Report: Nov 30, 2015 at 3:20 AM

Visibility: N/A

Pressure: 30.09 "Hg

Humidity: 71%

Dew point: 39 °F

Location of Neuburg an der DonauLocation

Historic Weather in Neuburg an der Donau — Graph


Neuburg an der Donau temperature yesterday

Maximum temperature yesterday: 48 °F (at 10:48 PM)
Minimum temperature yesterday: 34 °F (at 12:20 AM)
Average temperature yesterday: 41 °F

Past Weeks' High & Low Weather Summary

High63 °F (Nov 16, 2:20 PM)100% (Nov 20, 3:20 PM)30.27 "Hg (Nov 20, 3:20 PM)
Low23 °F (Nov 24, 3:58 AM)51% (Nov 18, 10:20 AM)29.42 "Hg (Nov 21, 1:20 PM)
Average40 °F84%29.95 "Hg
* Reported Nov 15 2:20 AM — Nov 30 2:20 AM, Neuburg an der Donau, Weather by CustomWeather, © 2015

Note: Actual official high and low records may vary slightly from our data, if they occured in-between our weather recording intervals... More about our weather records


Neuburg an der Donau weather history for previous 24 hours

Time TempWeatherWind HumidityBarometerVisibility
2:20 AM
Mon, Nov 30
48 °FPassing clouds.24 mph71%30.09 "HgN/A
1:20 AM48 °FPassing clouds.24 mph71%30.09 "HgN/A
12:20 AM48 °FPassing clouds.26 mph71%30.07 "HgN/A
11:20 PM
Sun, Nov 29
48 °FPassing clouds.26 mph71%30.07 "HgN/A
10:48 PM48 °FPassing clouds.25 mph71%30.07 "HgN/A
10:20 PM46 °FPassing clouds.23 mph76%30.07 "HgN/A
9:20 PM46 °FLight rain. Partly cloudy.22 mph76%30.07 "HgN/A
8:20 PM46 °FPassing clouds.22 mph76%30.07 "HgN/A
7:20 PM45 °FLight rain. Mostly cloudy.24 mph81%30.07 "HgN/A
6:20 PM45 °FMostly cloudy.25 mph81%30.07 "HgN/A
5:20 PM43 °FDrizzle. Mostly cloudy.21 mph87%30.07 "HgN/A
4:20 PM43 °FLight rain. Cloudy.16 mph81%30.07 "HgN/A
3:20 PM43 °FPartly sunny.17 mph81%30.07 "HgN/A
2:20 PM41 °FLight rain. Partly sunny.18 mph87%30.07 "HgN/A
1:20 PM41 °FDrizzle. Mostly cloudy.20 mph81%30.04 "HgN/A
12:20 PM41 °FDrizzle. Mostly cloudy.21 mph81%30.04 "HgN/A
11:20 AM39 °FLight rain. Mostly cloudy.16 mph81%30.07 "HgN/A
10:20 AM39 °FLight rain. Partly sunny.18 mph81%30.07 "HgN/A
9:20 AM39 °FPartly sunny.17 mph70%30.07 "HgN/A
8:20 AM39 °FPartly sunny.14 mph70%30.07 "HgN/A
7:20 AM37 °FPartly cloudy.14 mph75%30.07 "HgN/A
5:20 AM34 °FPartly cloudy.12 mph81%30.09 "HgN/A
4:20 AM36 °FPassing clouds.14 mph81%30.09 "HgN/A
Weather by CustomWeather, © 2015

See weather overviewHow to use our weather pages